| time (UTC) | temp F | wind direction | speed knots | gust knots | rain 1hr in | rain 24hr in | rain mn in | humidity % | barometer mb |
| 20260506182801 | 58 | 213 | 2.6 | 2.6 | 0.00 | 0.33 | 0.33 | 99 | 1007.5 |
| 20260506182257 | 58 | 231 | 0.9 | 0.9 | 0.00 | 0.33 | 0.33 | 99 | 1007.7 |
| 20260506181755 | 58 | 202 | 1.7 | 1.7 | 0.00 | 0.33 | 0.33 | 99 | 1007.8 |
| 20260506181253 | 58 | 234 | 1.7 | 1.7 | 0.00 | 0.33 | 0.33 | 99 | 1007.9 |
| 20260506180750 | 58 | 220 | 1.7 | 1.7 | 0.05 | 0.33 | 0.33 | 99 | 1007.8 |
| 20260506180246 | 58 | 228 | 1.7 | 1.7 | 0.05 | 0.33 | 0.33 | 99 | 1007.8 |
| 20260506175742 | 58 | 217 | 2.6 | 2.6 | 0.07 | 0.32 | 0.32 | 99 | 1008.1 |
| 20260506175239 | 58 | 199 | 2.6 | 2.6 | 0.07 | 0.32 | 0.32 | 99 | 1007.9 |
| 20260506174737 | 58 | 228 | 1.7 | 1.7 | 0.07 | 0.32 | 0.32 | 99 | 1007.9 |
| 20260506174233 | 57 | 231 | 0.9 | 1.7 | 0.00 | 0.31 | 0.31 | 99 | 1008.1 |
| 20260506173732 | 57 | 220 | 1.7 | 2.6 | 0.00 | 0.31 | 0.31 | 99 | 1007.8 |
| 20260506173228 | 57 | 220 | 0.9 | 0.9 | 0.05 | 0.31 | 0.31 | 99 | 1007.8 |
| 20260506172725 | 57 | 224 | 0.9 | 1.7 | 0.05 | 0.31 | 0.31 | 99 | 1008.0 |
| 20260506172221 | 57 | 211 | 1.7 | 1.7 | 0.00 | 0.30 | 0.30 | 99 | 1008.0 |
| 20260506171719 | 57 | 195 | 2.6 | 2.6 | 0.00 | 0.30 | 0.30 | 99 | 1007.8 |
| 20260506171216 | 57 | 212 | 1.7 | 1.7 | 0.00 | 0.30 | 0.30 | 99 | 1007.9 |
| 20260506170714 | 57 | 213 | 2.6 | 2.6 | 0.00 | 0.30 | 0.30 | 99 | 1007.9 |
| 20260506170210 | 57 | 204 | 1.7 | 1.7 | 0.07 | 0.30 | 0.30 | 99 | 1007.8 |
| 20260506165709 | 57 | 207 | 1.7 | 1.7 | 0.14 | 0.30 | 0.30 | 99 | 1008.0 |
| 20260506165205 | 57 | 204 | 2.6 | 2.6 | 0.12 | 0.29 | 0.29 | 99 | 1008.0 |
| 20260506164702 | 57 | 196 | 2.6 | 2.6 | 0.12 | 0.28 | 0.28 | 99 | 1008.2 |
| 20260506164159 | 57 | 199 | 1.7 | 2.6 | 0.12 | 0.27 | 0.27 | 99 | 1008.1 |
| 20260506163655 | 57 | 210 | 1.7 | 1.7 | 0.12 | 0.26 | 0.26 | 99 | 1008.1 |
| 20260506163151 | 57 | 200 | 2.6 | 2.6 | 0.07 | 0.25 | 0.25 | 99 | 1008.2 |
| 20260506162647 | 58 | 212 | 1.7 | 1.7 | 0.00 | 0.24 | 0.24 | 99 | 1008.0 |
| 20260506162145 | 58 | 191 | 2.6 | 2.6 | 0.00 | 0.24 | 0.24 | 99 | 1008.1 |
| 20260506161642 | 58 | 211 | 1.7 | 1.7 | 0.05 | 0.24 | 0.24 | 99 | 1008.1 |
| 20260506161139 | 57 | 208 | 0.9 | 0.9 | 0.12 | 0.24 | 0.24 | 99 | 1008.2 |
| 20260506160636 | 57 | 189 | 1.7 | 2.6 | 0.12 | 0.23 | 0.23 | 99 | 1008.1 |
| 20260506160133 | 57 | 210 | 1.7 | 1.7 | 0.12 | 0.22 | 0.22 | 99 | 1008.4 |
| 20260506155632 | 57 | 213 | 3.5 | 4.3 | 0.17 | 0.22 | 0.22 | 99 | 1008.4 |
| 20260506155128 | 57 | 205 | 2.6 | 2.6 | 0.12 | 0.18 | 0.18 | 99 | 1008.7 |
| 20260506153225 | 57 | 212 | 1.7 | 2.6 | 0.07 | 0.17 | 0.17 | 99 | 1008.7 |
| 20260506152721 | 57 | 163 | 2.6 | 2.6 | 0.00 | 0.16 | 0.16 | 99 | 1008.5 |
| 20260506152219 | 57 | 208 | 1.7 | 4.3 | 0.07 | 0.16 | 0.16 | 99 | 1008.4 |
| 20260506151718 | 58 | 209 | 2.6 | 2.6 | 0.07 | 0.16 | 0.16 | 99 | 1008.4 |
| 20260506151214 | 58 | 202 | 2.6 | 2.6 | 0.07 | 0.16 | 0.16 | 99 | 1008.7 |
| 20260506150710 | 58 | 199 | 1.7 | 1.7 | 0.05 | 0.15 | 0.15 | 99 | 1008.6 |
| 20260506150207 | 57 | 205 | 1.7 | 1.7 | 0.12 | 0.15 | 0.15 | 99 | 1008.6 |
| 20260506145704 | 57 | 202 | 2.6 | 2.6 | 0.07 | 0.14 | 0.14 | 99 | 1008.6 |
| 20260506145201 | 58 | 203 | 0.9 | 0.9 | 0.05 | 0.13 | 0.13 | 99 | 1008.5 |
| 20260506144659 | 58 | 206 | 1.7 | 1.7 | 0.12 | 0.13 | 0.13 | 99 | 1008.7 |
| 20260506144155 | 58 | 205 | 2.6 | 2.6 | 0.07 | 0.12 | 0.12 | 99 | 1008.5 |
| 20260506143653 | 58 | 201 | 0.9 | 0.9 | 0.05 | 0.11 | 0.11 | 99 | 1008.7 |
| 20260506143151 | 58 | 199 | 0.9 | 0.9 | 0.12 | 0.11 | 0.11 | 99 | 1008.6 |
| 20260506142649 | 58 | 197 | 0.9 | 0.9 | 0.07 | 0.10 | 0.10 | 99 | 1009.0 |
| 20260506142146 | 58 | 198 | 1.7 | 1.7 | 0.05 | 0.09 | 0.09 | 99 | 1009.2 |
| 20260506141644 | 58 | 197 | 1.7 | 1.7 | 0.12 | 0.09 | 0.09 | 99 | 1009.4 |
| 20260506141142 | 58 | 201 | 1.7 | 1.7 | 0.17 | 0.09 | 0.09 | 99 | 1009.0 |
| 20260506140639 | 58 | 204 | 1.7 | 1.7 | 0.12 | 0.07 | 0.07 | 99 | 1009.4 |
| 20260506140136 | 58 | 202 | 1.7 | 1.7 | 0.14 | 0.06 | 0.06 | 99 | 1009.1 |
| 20260506135633 | 58 | 202 | 1.7 | 1.7 | 0.07 | 0.05 | 0.05 | 99 | 1009.2 |
| 20260506135129 | 58 | 199 | 0.9 | 0.9 | 0.05 | 0.04 | 0.04 | 99 | 1009.4 |
| 20260506134626 | 59 | 205 | 0.9 | 1.7 | 0.12 | 0.04 | 0.04 | 99 | 1009.4 |
| 20260506134122 | 59 | 205 | 0.9 | 0.9 | 0.07 | 0.03 | 0.03 | 98 | 1009.4 |
| 20260506133619 | 59 | 205 | 2.6 | 2.6 | 0.12 | 0.03 | 0.03 | 97 | 1009.4 |
| 20260506133116 | 59 | 199 | 0.0 | 0.9 | 0.05 | 0.02 | 0.02 | 96 | 1009.7 |
| 20260506132614 | 59 | 201 | 1.7 | 1.7 | 0.00 | 0.01 | 0.01 | 95 | 1009.6 |
| 20260506132111 | 59 | 200 | 0.9 | 1.7 | 0.00 | 0.01 | 0.01 | 95 | 1009.6 |
| 20260506131608 | 60 | 203 | 0.9 | 1.7 | 0.00 | 0.01 | 0.01 | 95 | 1009.7 |
| 20260506131104 | 60 | 202 | 0.9 | 0.9 | 0.00 | 0.01 | 0.01 | 94 | 1009.5 |
| 20260506130601 | 60 | 202 | 1.7 | 2.6 | 0.00 | 0.01 | 0.01 | 94 | 1009.6 |
| 20260506130059 | 60 | 203 | 1.7 | 1.7 | 0.00 | 0.01 | 0.01 | 94 | 1009.4 |
| 20260506125557 | 60 | 174 | 2.6 | 4.3 | 0.00 | 0.01 | 0.01 | 93 | 1009.2 |
| 20260506125054 | 60 | 201 | 0.0 | 0.9 | 0.07 | 0.01 | 0.01 | 94 | 1009.4 |
| 20260506124552 | 60 | 199 | 1.7 | 1.7 | 0.07 | 0.01 | 0.01 | 94 | 1009.0 |
| 20260506124049 | 60 | 202 | 0.9 | 0.9 | 0.00 | 0.00 | 0.00 | 94 | 1009.0 |
| 20260506123547 | 60 | 211 | 2.6 | 4.3 | 0.00 | 0.00 | 0.00 | 93 | 1008.9 |
| 20260506123045 | 60 | 194 | 2.6 | 2.6 | 0.00 | 0.00 | 0.00 | 93 | 1009.0 |
| 20260506122541 | 60 | 196 | 1.7 | 1.7 | 0.00 | 0.00 | 0.00 | 92 | 1008.7 |
| 20260506122040 | 60 | 187 | 0.9 | 1.7 | 0.00 | 0.00 | 0.00 | 92 | 1009.1 |
| 20260506121537 | 60 | 196 | 0.9 | 0.9 | 0.00 | 0.00 | 0.00 | 92 | 1009.1 |
| 20260506121033 | 60 | 197 | 1.7 | 1.7 | 0.00 | 0.00 | 0.00 | 93 | 1009.1 |
| 20260506120531 | 60 | 200 | 0.9 | 0.9 | 0.00 | 0.00 | 0.00 | 92 | 1009.1 |
| 20260506120028 | 60 | 200 | 0.9 | 1.7 | 0.00 | 0.00 | 0.00 | 91 | 1009.5 |
| 20260506115526 | 60 | 195 | 0.9 | 0.9 | 0.00 | 0.00 | 0.00 | 90 | 1009.4 |
| 20260506115024 | 60 | 194 | 1.7 | 1.7 | 0.00 | 0.00 | 0.00 | 90 | 1009.4 |
| 20260506114521 | 61 | 199 | 1.7 | 1.7 | 0.00 | 0.00 | 0.00 | 88 | 1009.4 |
| 20260506114020 | 61 | 196 | 0.9 | 1.7 | 0.00 | 0.00 | 0.00 | 86 | 1009.2 |
| 20260506113517 | 61 | 189 | 1.7 | 2.6 | 0.00 | 0.00 | 0.00 | 86 | 1009.2 |
| 20260506113015 | 61 | 200 | 2.6 | 2.6 | 0.00 | 0.00 | 0.00 | 86 | 1009.1 |
| 20260506112511 | 61 | 198 | 1.7 | 1.7 | 0.00 | 0.00 | 0.00 | 86 | 1009.4 |
| 20260506112008 | 61 | 201 | 0.9 | 1.7 | 0.00 | 0.00 | 0.00 | 85 | 1009.1 |
| 20260506111506 | 61 | 200 | 1.7 | 1.7 | 0.00 | 0.00 | 0.00 | 85 | 1009.4 |
| 20260506111003 | 61 | 197 | 2.6 | 2.6 | 0.00 | 0.00 | 0.00 | 85 | 1009.2 |
| 20260506110501 | 61 | 203 | 2.6 | 2.6 | 0.00 | 0.00 | 0.00 | 84 | 1009.1 |
| 20260506105957 | 61 | 197 | 2.6 | 2.6 | 0.00 | 0.00 | 0.00 | 85 | 1009.1 |
| 20260506105453 | 60 | 204 | 2.6 | 2.6 | 0.00 | 0.00 | 0.00 | 84 | 1008.7 |
| 20260506104951 | 60 | 198 | 1.7 | 1.7 | 0.00 | 0.00 | 0.00 | 84 | 1008.9 |
| 20260506104449 | 60 | 199 | 4.3 | 6.1 | 0.00 | 0.00 | 0.00 | 85 | 1008.7 |
| 20260506103947 | 60 | 196 | 1.7 | 2.6 | 0.00 | 0.00 | 0.00 | 84 | 1008.8 |
| 20260506103444 | 60 | 197 | 1.7 | 1.7 | 0.00 | 0.00 | 0.00 | 84 | 1008.6 |
| 20260506102940 | 60 | 203 | 3.5 | 5.2 | 0.00 | 0.00 | 0.00 | 83 | 1008.8 |
| 20260506102439 | 60 | 200 | 2.6 | 4.3 | 0.00 | 0.00 | 0.00 | 83 | 1008.6 |
| 20260506101936 | 60 | 195 | 2.6 | 2.6 | 0.00 | 0.00 | 0.00 | 83 | 1008.7 |
| 20260506101432 | 60 | 200 | 0.9 | 1.7 | 0.00 | 0.00 | 0.00 | 82 | 1008.8 |
| 20260506100930 | 60 | 202 | 2.6 | 2.6 | 0.00 | 0.00 | 0.00 | 82 | 1009.0 |
| 20260506100428 | 60 | 196 | 2.6 | 2.6 | 0.00 | 0.00 | 0.00 | 82 | 1008.8 |
| 20260506095925 | 60 | 197 | 0.9 | 1.7 | 0.00 | 0.00 | 0.00 | 82 | 1008.6 |
| 20260506095424 | 60 | 200 | 2.6 | 2.6 | 0.00 | 0.00 | 0.00 | 82 | 1009.0 |
| 20260506094919 | 60 | 196 | 2.6 | 2.6 | 0.00 | 0.00 | 0.00 | 82 | 1009.0 |
| 20260506094418 | 60 | 200 | 2.6 | 2.6 | 0.00 | 0.00 | 0.00 | 81 | 1008.8 |
| 20260506093916 | 60 | 200 | 2.6 | 4.3 | 0.00 | 0.00 | 0.00 | 81 | 1008.7 |
| 20260506093413 | 60 | 197 | 1.7 | 1.7 | 0.00 | 0.00 | 0.00 | 81 | 1008.9 |
| 20260506092911 | 60 | 202 | 1.7 | 1.7 | 0.00 | 0.00 | 0.00 | 81 | 1008.9 |
| 20260506092409 | 60 | 199 | 2.6 | 2.6 | 0.00 | 0.00 | 0.00 | 80 | 1008.8 |
| 20260506091905 | 60 | 193 | 2.6 | 2.6 | 0.00 | 0.00 | 0.00 | 80 | 1008.8 |
| 20260506091403 | 60 | 192 | 2.6 | 2.6 | 0.00 | 0.00 | 0.00 | 80 | 1008.8 |
| 20260506090900 | 60 | 193 | 2.6 | 2.6 | 0.00 | 0.00 | 0.00 | 79 | 1008.7 |
| 20260506090358 | 60 | 190 | 2.6 | 2.6 | 0.00 | 0.00 | 0.00 | 79 | 1009.0 |
| 20260506085854 | 61 | 193 | 1.7 | 1.7 | 0.00 | 0.00 | 0.00 | 79 | 1008.9 |
| 20260506085351 | 61 | 195 | 2.6 | 2.6 | 0.00 | 0.00 | 0.00 | 78 | 1009.2 |
| 20260506084847 | 61 | 190 | 0.9 | 2.6 | 0.00 | 0.00 | 0.00 | 78 | 1009.0 |
| 20260506084344 | 61 | 190 | 2.6 | 2.6 | 0.00 | 0.00 | 0.00 | 77 | 1009.1 |
| 20260506083840 | 61 | 191 | 2.6 | 2.6 | 0.00 | 0.00 | 0.00 | 76 | 1009.1 |
| 20260506083338 | 61 | 191 | 2.6 | 2.6 | 0.00 | 0.00 | 0.00 | 76 | 1009.2 |
| 20260506082835 | 61 | 190 | 2.6 | 2.6 | 0.00 | 0.00 | 0.00 | 76 | 1008.9 |
| 20260506082332 | 61 | 192 | 1.7 | 2.6 | 0.00 | 0.00 | 0.00 | 76 | 1008.8 |
| 20260506081828 | 61 | 192 | 1.7 | 1.7 | 0.00 | 0.00 | 0.00 | 75 | 1009.1 |
| 20260506081326 | 61 | 192 | 1.7 | 1.7 | 0.00 | 0.00 | 0.00 | 75 | 1009.1 |
| 20260506080823 | 61 | 192 | 2.6 | 2.6 | 0.00 | 0.00 | 0.00 | 75 | 1009.2 |
| 20260506080319 | 61 | 192 | 1.7 | 1.7 | 0.00 | 0.00 | 0.00 | 75 | 1009.2 |
| 20260506073304 | 62 | 191 | 2.6 | 2.6 | 0.00 | 0.00 | 0.00 | 73 | 1009.1 |
| 20260506072801 | 62 | 193 | 3.5 | 4.3 | 0.00 | 0.00 | 0.00 | 73 | 1009.1 |
| 20260506072258 | 62 | 190 | 1.7 | 1.7 | 0.00 | 0.00 | 0.00 | 72 | 1009.5 |
| 20260506071756 | 62 | 192 | 2.6 | 4.3 | 0.00 | 0.00 | 0.00 | 72 | 1009.4 |
| 20260506071254 | 62 | 193 | 1.7 | 1.7 | 0.00 | 0.00 | 0.00 | 72 | 1009.6 |
| 20260506070750 | 62 | 201 | 0.9 | 0.9 | 0.00 | 0.00 | 0.00 | 71 | 1009.2 |
| 20260506070247 | 62 | 207 | 0.9 | 1.7 | 0.00 | 0.00 | 0.00 | 72 | 1009.7 |
| 20260506062224 | 63 | 221 | 1.7 | 2.6 | 0.00 | 0.00 | 0.00 | 69 | 1010.0 |
| 20260506061720 | 63 | 197 | 1.7 | 2.6 | 0.00 | 0.00 | 0.00 | 70 | 1010.0 |
| 20260506061218 | 63 | 229 | 1.7 | 1.7 | 0.00 | 0.00 | 0.00 | 70 | 1010.2 |
| 20260506060716 | 63 | 223 | 1.7 | 1.7 | 0.00 | 0.00 | 0.00 | 68 | 1010.2 |
| 20260506060213 | 63 | 227 | 0.9 | 0.9 | 0.00 | 0.00 | 0.00 | 69 | 1010.2 |
| 20260506051145 | 65 | 216 | 2.6 | 2.6 | 0.00 | 0.00 | 0.00 | 65 | 1010.1 |
| 20260506050643 | 65 | 205 | 2.6 | 2.6 | 0.00 | 0.00 | 0.00 | 64 | 1010.2 |
| 20260506050140 | 64 | 222 | 1.7 | 1.7 | 0.00 | 0.00 | 0.00 | 65 | 1010.3 |
| 20260506045132 | 64 | 236 | 1.7 | 1.7 | 0.00 | 0.00 | 0.00 | 65 | 1010.4 |
| 20260506044630 | 65 | 206 | 0.9 | 1.7 | 0.00 | 0.00 | 0.00 | 64 | 1010.2 |
| 20260506044122 | 65 | 208 | 2.6 | 2.6 | 0.00 | 0.00 | 0.00 | 63 | 1010.2 |
| 20260506043619 | 65 | 228 | 0.9 | 0.9 | 0.00 | 0.00 | 0.00 | 63 | 1010.0 |
| 20260506043117 | 65 | 220 | 1.7 | 1.7 | 0.00 | 0.00 | 0.00 | 63 | 1010.3 |
| 20260506042616 | 65 | 223 | 0.9 | 1.7 | 0.00 | 0.00 | 0.00 | 62 | 1010.2 |
| 20260506042114 | 65 | 203 | 1.7 | 1.7 | 0.00 | 0.00 | 0.00 | 62 | 1010.4 |
| 20260506041612 | 66 | 234 | 2.6 | 2.6 | 0.00 | 0.00 | 0.00 | 61 | 1010.3 |
| 20260506041108 | 66 | 215 | 2.6 | 4.3 | 0.00 | 0.00 | 0.00 | 61 | 1010.2 |
| 20260506040607 | 66 | 236 | 0.0 | 0.0 | 0.00 | 0.00 | 0.00 | 61 | 1010.2 |
| 20260506035600 | 66 | 222 | 0.9 | 1.7 | 0.00 | 0.00 | 0.00 | 61 | 1010.3 |
| 20260506035056 | 66 | 209 | 2.6 | 2.6 | 0.00 | 0.00 | 0.00 | 60 | 1010.5 |
| 20260506034553 | 66 | 225 | 1.7 | 2.6 | 0.00 | 0.00 | 0.00 | 59 | 1010.3 |
| 20260506034050 | 66 | 207 | 1.7 | 1.7 | 0.00 | 0.00 | 0.00 | 59 | 1010.2 |
| 20260506033548 | 66 | 194 | 0.9 | 1.7 | 0.00 | 0.00 | 0.00 | 60 | 1010.1 |
| 20260506033044 | 66 | 173 | 3.5 | 4.3 | 0.00 | 0.00 | 0.00 | 59 | 1010.0 |
| 20260506032542 | 66 | 210 | 0.9 | 1.7 | 0.00 | 0.00 | 0.00 | 59 | 1010.2 |
| 20260506032038 | 66 | 219 | 1.7 | 1.7 | 0.00 | 0.00 | 0.00 | 59 | 1010.1 |
| 20260506031536 | 66 | 203 | 1.7 | 1.7 | 0.00 | 0.00 | 0.00 | 58 | 1010.1 |
| 20260506031033 | 67 | 215 | 1.7 | 1.7 | 0.00 | 0.00 | 0.00 | 57 | 1010.4 |
| 20260506030531 | 67 | 232 | 1.7 | 1.7 | 0.00 | 0.00 | 0.00 | 56 | 1010.1 |
| 20260506030028 | 68 | 208 | 1.7 | 1.7 | 0.00 | 0.00 | 0.00 | 56 | 1010.3 |
| 20260506025525 | 67 | 183 | 3.5 | 4.3 | 0.00 | 0.00 | 0.00 | 57 | 1010.3 |
| 20260506025021 | 67 | 234 | 1.7 | 1.7 | 0.00 | 0.00 | 0.00 | 56 | 1010.4 |
| 20260506024518 | 68 | 223 | 1.7 | 1.7 | 0.00 | 0.00 | 0.00 | 55 | 1010.1 |
| 20260506024014 | 68 | 214 | 2.6 | 2.6 | 0.00 | 0.00 | 0.00 | 55 | 1010.3 |
| 20260506023510 | 68 | 231 | 0.0 | 0.0 | 0.00 | 0.00 | 0.00 | 55 | 1010.5 |
| 20260506023009 | 68 | 254 | 2.6 | 2.6 | 0.00 | 0.00 | 0.00 | 54 | 1010.5 |
| 20260506022506 | 68 | 219 | 2.6 | 2.6 | 0.00 | 0.00 | 0.00 | 54 | 1010.4 |
| 20260506022003 | 69 | 220 | 1.7 | 1.7 | 0.00 | 0.00 | 0.00 | 54 | 1010.4 |
| 20260506021500 | 69 | 223 | 2.6 | 2.6 | 0.00 | 0.00 | 0.00 | 53 | 1010.5 |
| 20260506020957 | 69 | 225 | 1.7 | 1.7 | 0.00 | 0.00 | 0.00 | 54 | 1010.6 |
| 20260506020455 | 69 | 205 | 1.7 | 1.7 | 0.00 | 0.00 | 0.00 | 53 | 1010.4 |
| 20260506015952 | 69 | 221 | 0.9 | 0.9 | 0.00 | 0.00 | 0.00 | 54 | 1010.3 |
| 20260506015449 | 69 | 230 | 1.7 | 2.6 | 0.00 | 0.00 | 0.00 | 54 | 1010.4 |
| 20260506014946 | 69 | 224 | 1.7 | 2.6 | 0.00 | 0.00 | 0.00 | 54 | 1010.2 |
| 20260506014443 | 69 | 241 | 0.9 | 1.7 | 0.00 | 0.00 | 0.00 | 54 | 1010.0 |
| 20260506013939 | 69 | 220 | 0.0 | 0.0 | 0.00 | 0.00 | 0.00 | 54 | 1010.2 |
| 20260506013438 | 69 | 226 | 1.7 | 1.7 | 0.00 | 0.00 | 0.00 | 53 | 1009.9 |
| 20260506012933 | 70 | 201 | 1.7 | 1.7 | 0.00 | 0.00 | 0.00 | 53 | 1009.8 |
| 20260506012430 | 70 | 205 | 1.7 | 1.7 | 0.00 | 0.00 | 0.00 | 52 | 1009.8 |
| 20260506011927 | 70 | 218 | 2.6 | 2.6 | 0.00 | 0.00 | 0.00 | 52 | 1009.9 |
| 20260506011425 | 70 | 223 | 1.7 | 1.7 | 0.00 | 0.00 | 0.00 | 52 | 1009.6 |
| 20260506010921 | 70 | 215 | 1.7 | 1.7 | 0.00 | 0.00 | 0.00 | 52 | 1009.5 |
| 20260506010420 | 70 | 229 | 1.7 | 1.7 | 0.00 | 0.00 | 0.00 | 53 | 1009.7 |
| 20260506005916 | 71 | 237 | 1.7 | 1.7 | 0.00 | 0.00 | 0.00 | 51 | 1009.6 |
| 20260506005414 | 71 | 214 | 0.9 | 0.9 | 0.00 | 0.00 | 0.00 | 51 | 1009.7 |
| 20260506004909 | 71 | 206 | 1.7 | 1.7 | 0.00 | 0.00 | 0.00 | 52 | 1009.9 |
| 20260506004407 | 71 | 226 | 1.7 | 1.7 | 0.00 | 0.00 | 0.00 | 52 | 1009.6 |
| 20260506003903 | 71 | 232 | 2.6 | 2.6 | 0.00 | 0.00 | 0.00 | 51 | 1009.5 |
| 20260506003359 | 71 | 234 | 1.7 | 1.7 | 0.00 | 0.00 | 0.00 | 51 | 1009.6 |
| 20260506002856 | 71 | 194 | 2.6 | 2.6 | 0.00 | 0.00 | 0.00 | 51 | 1009.2 |
| 20260506002352 | 71 | 211 | 1.7 | 2.6 | 0.00 | 0.00 | 0.00 | 52 | 1009.2 |
| 20260506001848 | 71 | 227 | 2.6 | 2.6 | 0.00 | 0.00 | 0.00 | 51 | 1009.2 |
| 20260506001345 | 71 | 216 | 1.7 | 1.7 | 0.00 | 0.00 | 0.00 | 50 | 1009.2 |
| 20260506000842 | 72 | 238 | 0.9 | 1.7 | 0.00 | 0.00 | 0.00 | 50 | 1009.1 |
| 20260506000340 | 72 | 227 | 2.6 | 2.6 | 0.00 | 0.00 | 0.00 | 48 | 1009.0 |
| 20260505235836 | 72 | 209 | 1.7 | 2.6 | 0.00 | 0.00 | 0.00 | 48 | 1009.1 |
| 20260505235334 | 72 | 213 | 2.6 | 2.6 | 0.00 | 0.00 | 0.00 | 49 | 1009.1 |
| 20260505234830 | 72 | 241 | 0.9 | 0.9 | 0.00 | 0.00 | 0.00 | 49 | 1009.0 |
| 20260505234329 | 72 | 238 | 0.9 | 0.9 | 0.00 | 0.00 | 0.00 | 48 | 1009.0 |
| 20260505233825 | 72 | 228 | 0.9 | 1.7 | 0.00 | 0.00 | 0.00 | 49 | 1009.1 |
| 20260505233323 | 72 | 212 | 2.6 | 2.6 | 0.00 | 0.00 | 0.00 | 48 | 1009.2 |
| 20260505232820 | 72 | 192 | 1.7 | 1.7 | 0.00 | 0.00 | 0.00 | 48 | 1009.0 |
| 20260505232318 | 72 | 214 | 0.9 | 1.7 | 0.00 | 0.00 | 0.00 | 47 | 1009.1 |
| 20260505231814 | 73 | 246 | 0.9 | 1.7 | 0.00 | 0.00 | 0.00 | 47 | 1009.1 |
| 20260505231312 | 73 | 204 | 2.6 | 2.6 | 0.00 | 0.00 | 0.00 | 46 | 1009.0 |
| 20260505230810 | 73 | 236 | 2.6 | 2.6 | 0.00 | 0.00 | 0.00 | 46 | 1008.9 |
| 20260505230307 | 73 | 248 | 0.9 | 0.9 | 0.00 | 0.00 | 0.00 | 47 | 1008.9 |
| 20260505225803 | 73 | 275 | 2.6 | 2.6 | 0.00 | 0.00 | 0.00 | 47 | 1008.7 |
| 20260505225301 | 73 | 215 | 0.9 | 0.9 | 0.00 | 0.00 | 0.00 | 47 | 1008.6 |
| 20260505224755 | 73 | 230 | 0.9 | 0.9 | 0.00 | 0.00 | 0.00 | 46 | 1008.7 |
| 20260505224254 | 73 | 230 | 0.9 | 1.7 | 0.00 | 0.00 | 0.00 | 46 | 1008.4 |
| 20260505223751 | 73 | 269 | 2.6 | 2.6 | 0.00 | 0.00 | 0.00 | 46 | 1008.9 |
| 20260505223247 | 73 | 195 | 2.6 | 2.6 | 0.00 | 0.00 | 0.00 | 46 | 1008.6 |
| 20260505222743 | 73 | 199 | 2.6 | 2.6 | 0.00 | 0.00 | 0.00 | 46 | 1008.5 |
| 20260505222240 | 74 | 191 | 0.9 | 1.7 | 0.00 | 0.00 | 0.00 | 47 | 1008.4 |
| 20260505221737 | 74 | 241 | 4.3 | 5.2 | 0.00 | 0.00 | 0.00 | 46 | 1008.5 |
| 20260505221233 | 74 | 180 | 2.6 | 2.6 | 0.00 | 0.00 | 0.00 | 46 | 1008.5 |
| 20260505220730 | 74 | 232 | 2.6 | 4.3 | 0.00 | 0.00 | 0.00 | 47 | 1008.6 |
| 20260505220228 | 74 | 249 | 1.7 | 1.7 | 0.00 | 0.00 | 0.00 | 46 | 1008.5 |
| 20260505215726 | 75 | 261 | 1.7 | 1.7 | 0.00 | 0.00 | 0.00 | 45 | 1008.4 |
| 20260505215223 | 75 | 206 | 3.5 | 5.2 | 0.00 | 0.00 | 0.00 | 44 | 1008.6 |
| 20260505214721 | 75 | 207 | 3.5 | 4.3 | 0.00 | 0.00 | 0.00 | 44 | 1008.4 |
| 20260505214218 | 75 | 254 | 0.9 | 1.7 | 0.00 | 0.00 | 0.00 | 44 | 1008.3 |
| 20260505213715 | 75 | 206 | 2.6 | 4.3 | 0.00 | 0.00 | 0.00 | 44 | 1008.4 |
| 20260505213213 | 75 | 245 | 0.9 | 1.7 | 0.00 | 0.00 | 0.00 | 44 | 1008.5 |
| 20260505212708 | 75 | 232 | 1.7 | 1.7 | 0.00 | 0.00 | 0.00 | 42 | 1008.3 |
| 20260505212206 | 75 | 228 | 0.9 | 1.7 | 0.00 | 0.00 | 0.00 | 41 | 1007.9 |
| 20260505211703 | 75 | 194 | 1.7 | 1.7 | 0.00 | 0.00 | 0.00 | 40 | 1008.0 |
| 20260505211200 | 76 | 265 | 1.7 | 1.7 | 0.00 | 0.00 | 0.00 | 39 | 1008.1 |
| 20260505210656 | 76 | 226 | 4.3 | 6.1 | 0.00 | 0.00 | 0.00 | 38 | 1007.9 |
| 20260505210153 | 76 | 207 | 2.6 | 2.6 | 0.00 | 0.00 | 0.00 | 39 | 1008.1 |
| 20260505205651 | 76 | 287 | 1.7 | 4.3 | 0.00 | 0.00 | 0.00 | 39 | 1007.9 |
| 20260505205149 | 77 | 212 | 2.6 | 5.2 | 0.00 | 0.00 | 0.00 | 39 | 1008.0 |
| 20260505204645 | 78 | 189 | 3.5 | 4.3 | 0.00 | 0.00 | 0.00 | 38 | 1007.9 |
| 20260505204143 | 78 | 219 | 3.5 | 5.2 | 0.00 | 0.00 | 0.00 | 38 | 1008.0 |
| 20260505203640 | 79 | 260 | 1.7 | 2.6 | 0.00 | 0.00 | 0.00 | 38 | 1008.2 |
| 20260505203137 | 78 | 225 | 4.3 | 5.2 | 0.00 | 0.00 | 0.00 | 37 | 1008.0 |
| 20260505202632 | 78 | 278 | 2.6 | 2.6 | 0.00 | 0.00 | 0.00 | 37 | 1008.2 |
| 20260505202128 | 77 | 190 | 4.3 | 6.1 | 0.00 | 0.00 | 0.00 | 38 | 1008.0 |
| 20260505201625 | 79 | 223 | 3.5 | 5.2 | 0.00 | 0.00 | 0.00 | 37 | 1007.8 |
| 20260505201123 | 79 | 237 | 4.3 | 5.2 | 0.00 | 0.00 | 0.00 | 37 | 1007.7 |
| 20260505200621 | 78 | 234 | 2.6 | 4.3 | 0.00 | 0.00 | 0.00 | 37 | 1007.9 |
| 20260505200118 | 78 | 233 | 3.5 | 4.3 | 0.00 | 0.00 | 0.00 | 37 | 1007.9 |
| 20260505195614 | 79 | 176 | 4.3 | 7.8 | 0.00 | 0.00 | 0.00 | 36 | 1008.0 |
| 20260505195111 | 79 | 197 | 3.5 | 4.3 | 0.00 | 0.00 | 0.00 | 37 | 1008.1 |
| 20260505194608 | 78 | 225 | 6.1 | 7.8 | 0.00 | 0.00 | 0.00 | 36 | 1008.1 |
| 20260505194104 | 78 | 223 | 1.7 | 1.7 | 0.00 | 0.00 | 0.00 | 38 | 1007.8 |
| 20260505193601 | 78 | 256 | 3.5 | 4.3 | 0.00 | 0.00 | 0.00 | 38 | 1008.5 |
| 20260505193058 | 79 | 357 | 3.5 | 6.1 | 0.00 | 0.00 | 0.00 | 38 | 1008.2 |
| 20260505192557 | 78 | 257 | 2.6 | 4.3 | 0.00 | 0.00 | 0.00 | 38 | 1008.7 |
| 20260505192054 | 77 | 283 | 2.6 | 4.3 | 0.00 | 0.00 | 0.00 | 38 | 1008.7 |
| 20260505191552 | 76 | 239 | 4.3 | 5.2 | 0.00 | 0.00 | 0.00 | 40 | 1008.2 |
| 20260505191050 | 78 | 249 | 3.5 | 4.3 | 0.00 | 0.00 | 0.00 | 40 | 1008.5 |
| 20260505190544 | 78 | 264 | 2.6 | 2.6 | 0.00 | 0.00 | 0.00 | 39 | 1008.5 |
| 20260505190040 | 78 | 250 | 3.5 | 4.3 | 0.00 | 0.00 | 0.00 | 38 | 1008.6 |
| 20260505185537 | 78 | 226 | 2.6 | 4.3 | 0.00 | 0.00 | 0.00 | 40 | 1008.9 |
| 20260505185034 | 78 | 234 | 2.6 | 5.2 | 0.00 | 0.00 | 0.00 | 39 | 1008.6 |
| 20260505184531 | 79 | 183 | 4.3 | 6.1 | 0.00 | 0.00 | 0.00 | 39 | 1009.0 |
| 20260505184027 | 78 | 238 | 5.2 | 6.1 | 0.00 | 0.00 | 0.00 | 39 | 1009.1 |
| 20260505183524 | 78 | 255 | 2.6 | 5.2 | 0.00 | 0.00 | 0.00 | 41 | 1009.1 |